Regional Weather Roundup
Issued by NWS

Home | Current Version | Previous Version | Text Only | Print | Product List | Glossary Off
Versions: 1 2 3 4 5 6 7 8 9 10 11 12 13 14 15 16 17 18 19 20 21 22 23 24 25 26 27 28 29 30 31 32 33 34 35 36 37 38 39 40 41 42 43 44 45 46 47 48 49 50

000
ASUS43 KIND 142109
RWRIN

WEATHER ROUNDUP FOR INDIANA
NATIONAL WEATHER SERVICE INDIANAPOLIS IN
500 PM EDT SUN SEP 14 2014

NOTE: "FAIR" INDICATES FEW OR NO CLOUDS BELOW 12,000 FEET WITH NO
SIGNIFICANT WEATHER AND/OR OBSTRUCTIONS TO VISIBILITY.

* - STATION DOES NOT REPORT WEATHER SUCH AS PRECIPITATION OR FOG.

+ - STATION NOT QUALITY CONTROLLED BY THE NATIONAL WEATHER SERVICE.
    USE DATA WITH CAUTION...ESPECIALLY DEWPOINT AND RELATIVE
    HUMIDITY OBSERVATIONS.

INZ001>003-010>013-019-020-142200-
NORTHWEST INDIANA

CITY           SKY/WX    TMP DP  RH WIND       PRES   REMARKS
GARY /AIRPORT/ SUNNY     50  41  71 SW9       30.21F
KNOX *+        SUNNY     65  42  43 S7        30.20F
LA PORTE +     SUNNY     63  43  47 W9        30.22F
MICHIGAN CITY+ SUNNY     64  43  45 SW8       30.21F
MONTICELLO +   SUNNY     65  46  50 SE5       30.21F
RENSSELAER +   SUNNY     66  45  45 W7        30.21F
VALPARAISO     SUNNY     64  42  44 SW10      30.22F

$$

LMZ046-743>745-142200-
SOUTHERN LAKE MICHIGAN

STATION/POSITION TIME  TEMP WIND        PRES
                       AIR  DIR/SP/G
                 (UTC) (F)  (DEG/KT/KT) (MB)
MICHIGAN CITY    2100   61  230/  9/ 10   N/A

$$

INZ004-005-014>016-021>024-142200-
NORTH CENTRAL INDIANA

CITY           SKY/WX    TMP DP  RH WIND       PRES   REMARKS
GOSHEN         MOSUNNY   65  44  46 W9        30.22F
LOGANSPORT +   SUNNY     64  41  42 CALM      30.21F
PERU/GRISSOM   MOSUNNY   67  46  47 VRB5      30.21F
ROCHESTER +    SUNNY     68  43  40 CALM      30.22F
SOUTH BEND     MOSUNNY   64  41  42 SW7       30.22F
WARSAW +       PTSUNNY   64  45  48 SW7       30.22F

$$

INZ006>009-017-018-025>027-142200-
NORTHEAST INDIANA

CITY           SKY/WX    TMP DP  RH WIND       PRES   REMARKS
ANGOLA *+      PTSUNNY   63  54  72 S8        30.22F
AUBURN +       SUNNY     64  41  42 SW7       30.23F
FORT WAYNE     MOSUNNY   66  46  48 W3        30.23F
HUNTINGTON +   MOSUNNY   64  45  50 SW3       30.22F

$$

INZ028-029-035-036-043>045-051>053-142200-
WEST CENTRAL INDIANA

CITY           SKY/WX    TMP DP  RH WIND       PRES   REMARKS
GREENCASTLE +  SUNNY     64  46  52 CALM      30.22F
LAFAYETTE      SUNNY     65  45  48 VRB3      30.21F
TERRE HAUTE    SUNNY     68  45  43 W5        30.22F

$$

INZ030>032-037>040-046>048-054>057-064-065-142200-
CENTRAL INDIANA

CITY           SKY/WX    TMP DP  RH WIND       PRES   REMARKS
CP ATTERBURY + SUNNY     68  45  42 CALM      30.21F
FRANKFORT +    SUNNY     68  45  42 SW6       30.23F
INDIANAPOLIS   MOSUNNY   67  44  43 SW6       30.21F
-EAGLE CREEK   SUNNY     68  43  40 VRB3      30.21F
KOKOMO *+      SUNNY     70  46  43 W8        30.22F
MARION +       MOSUNNY   67  42  39 CALM      30.22F
MT COMFORT *+  SUNNY     68  32  26 SW5       30.22S
SHELBYVILLE    SUNNY     71  45  39 SW5       30.20F
ZIONSVILLE +   SUNNY     67  43  41 CALM      30.23S

$$

INZ033-034-041-042-049-050-058-059-142200-
EAST CENTRAL INDIANA

CITY           SKY/WX    TMP DP  RH WIND       PRES   REMARKS
MUNCIE         SUNNY     67  45  45 SW6       30.21F

$$

INZ060-061-067>069-081>083-085>088-142200-
SOUTHWEST INDIANA

CITY           SKY/WX    TMP DP  RH WIND       PRES   REMARKS
EVANSVILLE     SUNNY     71  47  42 VRB3      30.21F
WASHINGTON +   SUNNY     71  49  45 SW3       30.20S

$$

INZ062-063-066-070>080-084-089>092-142200-
SOUTH CENTRAL AND SOUTHEAST INDIANA

CITY           SKY/WX    TMP DP  RH WIND       PRES   REMARKS
BLOOMINGTON    SUNNY     68  45  43 VRB3      30.21F

$$




USA.gov is the U.S. government's official web portal to all federal, state and local government web resources and services.